Regional Weather Roundup
Issued by NWS

Home | Current Version | Previous Version | Graphics & Text | Print | Product List | Glossary On
Versions: 1 2 3 4 5 6 7 8 9 10 11 12 13 14 15 16 17 18 19 20 21 22 23 24 25 26 27 28 29 30 31 32 33 34 35 36 37 38 39 40 41 42 43 44 45 46 47 48 49 50
875
ASUS45 KBOU 271807
RWRCO

WEATHER ROUNDUP FOR COLORADO
NATIONAL WEATHER SERVICE DENVER/BOULDER CO
1200 PM MDT SAT MAY 27 2017

NOTE: "FAIR" INDICATES FEW OR NO CLOUDS BELOW 12000 FEET WITH NO
SIGNIFICANT WEATHER AND/OR OBSTRUCTIONS TO VISIBILITY.

COZ001>005-013-030-031-271900-
...NORTHWEST COLORADO...

CITY           SKY/WX    TMP DP  RH WIND       PRES   REMARKS
CRAIG          CLOUDY    51  43  74 S8        30.20R
HAYDEN         FAIR      45  36  70 S5        30.21R
MEEKER         PTSUNNY   50  38  63 S6        30.21R
RABBIT EARS PA NOT AVBL
STEAMBOAT SPGS NOT AVBL
WALDEN         NOT AVBL
$$

COZ006>008-011-271900-
...WEST CENTRAL VALLEYS...

CITY           SKY/WX    TMP DP  RH WIND       PRES   REMARKS
GRAND JUNCTION FAIR      66  29  24 W12       30.10S
MONTROSE       FAIR      62  31  31 MISG      30.14F
EAGLE          PTSUNNY   52  36  54 CALM      30.19R
RIFLE          CLOUDY    60  32  34 W14G21    30.15R
DELTA          FAIR      69  29  21 NW7       30.10S
NUCLA          FAIR      66  27  22 CALM      30.15S
$$

COZ017>023-064>068-271900-
...SOUTHWEST COLORADO...

CITY           SKY/WX    TMP DP  RH WIND       PRES   REMARKS
DURANGO        FAIR      69  24  18 W21G30    30.11S
CORTEZ         FAIR      69  28  21 W13       30.12S
PAGOSA SPRINGS FAIR      64  19  17 SW9G22    30.16S
TELLURIDE      PTSUNNY   52  24  33 W13G25    30.26S
WOLF CREEK PAS NOT AVBL
$$

COZ009-010-012-014-032>034-037-058>063-271900-
...CENTRAL COLORADO...

CITY           SKY/WX    TMP DP  RH WIND       PRES   REMARKS
ASPEN          CLOUDY    43  38  82 CALM      30.21S
BUENA VISTA    FAIR      57  29  34 NW9       30.10F
COPPER MTN     NOT AVBL
BERTHOUD PASS  NOT AVBL
COTTONWOOD PAS NOT AVBL
GUNNISON       FAIR      53  38  56 W15G22    30.17R THUNDER
KREMMLING      NOT AVBL
LEADVILLE      LGT SNOW  35  33  92 N10       30.24R FOG     WCI  27
SALIDA         FAIR      66  24  20 W10G29    30.15F
SUNLIGHT       NOT AVBL
WILKERSON PASS NOT AVBL
$$

COZ069>075-271900-
...SAN LUIS VALLEY/SANGRE DE CRISTO MOUNTAINS...

CITY           SKY/WX    TMP DP  RH WIND       PRES   REMARKS
ALAMOSA        FAIR      70  18  13 W18G25    30.08F
DEL NORTE      NOT AVBL
LA VETA PASS   NOT AVBL
SAGUACHE       NOT AVBL
$$

COZ035-036-038>040-271900-
...NORTHERN COLORADO FRONT RANGE...

CITY           SKY/WX    TMP DP  RH WIND       PRES   REMARKS
DENVER INTL AP PTSUNNY   58  40  51 NE15G24   30.09F
DMNS CITY PARK   N/A     54  42  66 NE8G21    30.10R
AURORA         PTSUNNY   56  43  61 NE12G21   30.11S
FRONT RANGE AP PTSUNNY   57  45  62 NE16G24   30.12S
ERIE MUNI ARPT NOT AVBL
BOULDER MUN AP NOT AVBL
CENTENNIAL     PTSUNNY   55  44  66 NE10G20   30.10F
BROOMFIELD     CLOUDY    52  46  82 N14       30.11S
FORT COLLINS   LGT RAIN  58  41  53 N15       30.11S
LONGMONT       NOT AVBL
$$

COZ041-046-047-076>085-087-088-271900-
...PIKES PEAK/PALMER DIVIDE AND SOUTHERN FOOTHILLS...

CITY           SKY/WX    TMP DP  RH WIND       PRES   REMARKS
COLO. SPRINGS  PTSUNNY   57  38  48 NE8       30.10F
A. F. ACADEMY  RAIN      49  42  76 NE8       30.12R
SCHRIEVER AFB  PTSUNNY   56  37  49 NE13G20   30.10F
CHEYENNE MTN   CLOUDY    53  37  55 E7        30.08R
ELLICOTT       CLOUDY   N/A N/A N/A E16       30.08F
FALCON         CLOUDY    51  37  57 NE13      30.13F
FORT CARSON    CLOUDY    60  39  46 E13       30.08S
LIMON          PTSUNNY   60  42  51 N25       30.10R
MONUMENT HILL  NOT AVBL
CANON CITY     NOT AVBL
WALSENBURG     FAIR      64  46  52 NE7       30.08S
TRINIDAD       FAIR      63  45  51 E8        30.07S
$$

COZ042>045-048>051-090-091-271900-
...NORTHEAST COLORADO...

CITY           SKY/WX    TMP DP  RH WIND       PRES   REMARKS
GREELEY ARPT   FAIR      58  44  60 N10       30.10S
AKRON            N/A     56  44  64 N20G26    30.10S
BURLINGTON     PTSUNNY   63  49  60 N21G28    30.03F
WRAY           CLOUDY    63  48  59 N15G21    30.05S
YUMA           NOT AVBL
STERLING       NOT AVBL
HOLYOKE        NOT AVBL
FORT MORGAN    CLOUDY    56  44  64 N12       30.11S
$$

COZ086-089-092>099-271900-
...SOUTHEAST COLORADO...

CITY           SKY/WX    TMP DP  RH WIND       PRES   REMARKS
PUEBLO         PTSUNNY   67  46  47 E12       30.04S
LA JUNTA       CLOUDY    67  48  50 NE12      30.03S
LAMAR          CLOUDY    69  49  48 N9G16     29.99S
SPRINGFIELD      N/A     67  53  61 N9        30.02R
$$




USA.gov is the U.S. government's official web portal to all federal, state and local government web resources and services.